Stations météo

réclame
Mon MeteoGroup
Regensburg, Allemagne (10776): Température de l'air & dewpoint: 01.07.2020 01:00:00 - 07.07.2020 01:00:00 (CEST)Regensburg, Allemagne (10776): Température de l'air 5cm & Température de l'air -5cm: 01.07.2020 01:00:00 - 07.07.2020 01:00:00 (CEST)Regensburg, Allemagne (10776): Température de l'air -20cm & Température de l'air -100cm: 01.07.2020 01:00:00 - 07.07.2020 01:00:00 (CEST)Regensburg, Allemagne (10776): Vitesse du vent & gusts: 01.07.2020 01:00:00 - 07.07.2020 01:00:00 (CEST)Regensburg, Allemagne (10776): Direction du vent: 01.07.2020 01:00:00 - 07.07.2020 01:00:00 (CEST)Regensburg, Allemagne (10776): reduced air pressure: 01.07.2020 01:00:00 - 07.07.2020 01:00:00 (CEST)Regensburg, Allemagne (10776): visibility: 01.07.2020 01:00:00 - 07.07.2020 01:00:00 (CEST)Regensburg, Allemagne (10776): Ensoleillement: 01.07.2020 01:00:00 - 07.07.2020 01:00:00 (CEST)Regensburg, Allemagne (10776): Quantités de précipitations: 01.07.2020 01:00:00 - 07.07.2020 01:00:00 (CEST)
Date & Time tt [°C] td [°C] tt 5cm [°C] tt -5cm [°C] tt -20cm [°C] tt -100cm [°C] ff [km/h] ff [knt] fx [km/h] fx [knt] dd ppp [hPa] vv [km] sd [min] rr [mm]
07.07.2020 01:00:00 11,5 6,6 8,2 17,3 22,7 18,6 3 2 8 4 NW 1021,4 66 0 0,0
07.07.2020 00:00:00 12,3 6,8 9,0 18,2 23,2 18,6 5 3 15 8 NW 1020,8 71 0 0,0
06.07.2020 23:00:00 13,7 6,4 10,3 19,3 23,5 18,6 6 3 21 11 WNW 1020,0 63 0 0,0
06.07.2020 22:00:00 14,7 6,3 11,7 20,6 23,8 18,6 7 4 19 10 WNW 1019,1 71 0 0,0
06.07.2020 21:00:00 16,5 5,8 13,8 22,2 24,0 18,6 8 4 29 16 WNW 1017,6 68 22 0,0
06.07.2020 20:00:00 18,8 5,7 16,9 24,0 23,9 18,6 10 5 40 22 WNW 1016,6 75 55 0,0
06.07.2020 19:00:00 20,1 6,2 21,7 25,8 23,8 18,6 17 9 45 25 NW 1015,6 60 51 0,0
06.07.2020 18:00:00 22,0 7,7 25,2 26,9 23,4 18,6 15 8 40 21 NW 1014,4 51 44 0,0
06.07.2020 17:00:00 23,4 9,7 28,0 28,3 23,0 18,6 14 7 39 21 WNW 1013,6 75 55 0,0
06.07.2020 16:00:00 23,2 7,4 27,7 28,5 22,5 18,6 17 9 40 22 WNW 1013,1 75 60 0,0
06.07.2020 15:00:00 23,0 9,9 27,4 27,7 22,1 18,6 10 6 42 23 WNW 1013,1 75 58 0,0
06.07.2020 14:00:00 20,2 11,8 20,0 26,4 21,9 18,6 10 5 23 12 W 1013,3 75 37 0,0
06.07.2020 13:00:00 19,1 15,4 20,5 23,4 21,8 18,6 9 5 23 12 SW 1013,8 57 5 0,0
06.07.2020 12:00:00 17,7 16,4 18,6 21,4 21,9 18,6 6 4 21 12 WSW 1014,2 73 0 0,4
06.07.2020 11:00:00 15,8 14,8 16,4 20,8 21,9 18,6 9 5 30 16 WNW 1014,4 3,8 0 4,0
06.07.2020 10:00:00 18,3 15,5 19,3 21,0 22,0 18,6 9 5 19 10 W 1013,3 75 0 0,0
06.07.2020 09:00:00 18,3 15,1 18,5 20,6 22,1 18,6 9 5 31 17 WNW 1013,2 23 0 0,0
06.07.2020 08:00:00 19,8 15,4 20,3 20,3 22,3 18,6 11 6 20 11 WSW 1012,1 71 10 0,0
06.07.2020 07:00:00 18,6 15,6 18,1 19,5 22,6 18,6 9 5 19 11 S 1012,1 75 33 0,0
06.07.2020 06:00:00 17,3 15,4 15,2 19,6 22,8 18,6 10 5 17 9 SSW 1012,6 69 0 0,0
06.07.2020 05:00:00 17,2 15,2 15,2 20,0 23,1 18,6 7 4 14 8 S 1012,7 75 0 0,0
06.07.2020 04:00:00 17,2 15,1 14,7 20,4 23,5 18,6 6 3 10 6 SSW 1013,4 68 0 0,0
06.07.2020 03:00:00 16,6 15,0 14,1 20,8 23,8 18,6 3 2 7 4 S 1013,8 75 0 0,0
06.07.2020 02:00:00 17,1 15,3 14,2 21,4 24,1 18,6 2 1 8 4 WNW 1014,0 75 0 0,0
06.07.2020 01:00:00 17,8 15,9 14,8 22,1 24,5 18,6 2 1 5 3 NNW 1013,8 72 0 0,0
06.07.2020 00:00:00 18,7 16,1 15,7 23,0 24,7 18,6 3 1 6 3 WSW 1013,6 75 0 0,0
05.07.2020 23:00:00 19,8 16,0 16,4 23,9 25,0 18,6 3 2 9 5 WSW 1013,7 70 0 0,0
05.07.2020 22:00:00 21,0 16,2 17,6 25,2 25,1 18,5 5 3 13 7 W 1013,6 75 0 0,0
05.07.2020 21:00:00 23,7 16,2 20,2 26,5 25,1 18,5 7 4 19 11 WSW 1012,8 75 22 0,0
05.07.2020 20:00:00 25,9 16,3 23,4 27,9 25,0 18,5 11 6 24 13 W 1012,7 75 55 0,0
05.07.2020 19:00:00 27,8 16,2 30,8 29,2 24,8 18,6 12 7 26 14 W 1012,8 75 41 0,0
05.07.2020 18:00:00 26,9 16,6 30,7 29,4 24,6 18,5 8 5 19 11 WSW 1013,3 75 13 0,0
05.07.2020 17:00:00 25,4 16,0 28,3 29,5 24,3 18,5 8 5 21 11 WSW 1014,0 75 0 0,0
05.07.2020 16:00:00 25,3 15,5 28,4 30,4 23,8 18,5 13 7 32 17 WSW 1014,5 75 7 0,0
05.07.2020 15:00:00 27,4 15,5 32,3 29,8 23,3 18,5 13 7 29 16 WSW 1014,6 75 8 0,0
05.07.2020 14:00:00 25,6 15,3 29,5 30,1 22,7 18,5 11 6 26 14 WSW 1015,3 75 11 0,0
05.07.2020 13:00:00 25,7 13,6 31,6 30,2 22,1 18,5 15 8 31 17 WSW 1015,6 62 52 0,0
05.07.2020 12:00:00 25,5 14,8 33,2 27,7 21,8 18,5 13 7 29 16 SW 1016,0 75 59 0,0
05.07.2020 11:00:00 23,6 13,9 29,4 23,7 21,7 18,5 8 4 25 14 SW 1016,7 71 31 0,0
05.07.2020 10:00:00 20,5 13,3 22,6 21,9 21,7 18,5 10 6 21 11 SSW 1017,4 75 0 0,0
05.07.2020 09:00:00 19,5 12,2 21,3 20,8 21,8 18,5 11 6 25 14 SW 1017,6 75 0 0,0
05.07.2020 08:00:00 18,5 12,1 19,3 20,0 21,9 18,5 13 7 25 14 SW 1017,8 75 0 0,0
05.07.2020 07:00:00 17,7 12,1 17,9 19,6 22,1 18,5 10 6 26 14 SW 1018,0 75 0 0,0
05.07.2020 06:00:00 17,2 12,3 16,8 19,6 22,4 18,5 12 6 19 10 SW 1017,9 62 0 0,0
05.07.2020 05:00:00 16,9 12,9 16,5 19,6 22,7 18,5 4 2 11 6 SSE 1018,0 58 0 0,0
05.07.2020 04:00:00 16,1 13,1 15,2 19,7 23,0 18,5 7 4 12 7 SSE 1018,1 57 0 0,0
05.07.2020 03:00:00 16,2 12,8 14,4 20,3 23,3 18,5 4 2 10 5 S 1018,2 61 0 0,0
05.07.2020 02:00:00 16,4 13,4 15,9 20,8 23,7 18,5 3 2 8 5 SSE 1018,2 51 0 0,0
05.07.2020 01:00:00 16,7 12,1 13,3 21,1 24,0 18,5 2 1 6 4 SSE 1018,2 60 0 0,0
05.07.2020 00:00:00 17,0 11,9 13,7 22,0 24,4 18,5 0 0 6 4 N 1018,0 68 0 0,0
04.07.2020 23:00:00 17,5 12,0 14,3 23,1 24,6 18,5 3 2 6 4 WSW 1017,8 57 0 0,0
04.07.2020 22:00:00 18,6 11,9 15,7 24,4 24,8 18,5 4 2 8 4 SW 1017,5 75 0 0,0
04.07.2020 21:00:00 20,9 11,5 17,8 25,9 24,8 18,5 6 3 21 12 WSW 1017,1 70 22 0,0
04.07.2020 20:00:00 23,7 11,2 21,4 27,6 24,6 18,5 11 6 24 13 W 1016,1 73 59 0,0
04.07.2020 19:00:00 25,5 10,6 28,5 29,1 24,2 18,5 14 8 29 16 W 1016,3 75 57 0,0
04.07.2020 18:00:00 26,0 10,2 31,1 30,2 23,7 18,5 14 8 28 15 WSW 1016,5 75 53 0,0
04.07.2020 17:00:00 26,0 10,6 30,0 30,6 23,2 18,5 14 7 27 14 W 1016,8 59 42 0,0
04.07.2020 16:00:00 26,8 11,8 33,8 30,2 22,6 18,5 10 5 24 13 W 1016,8 75 45 0,0
04.07.2020 15:00:00 24,0 11,2 29,7 29,1 22,1 18,5 12 6 26 14 W 1017,8 66 27 0,0
04.07.2020 14:00:00 24,3 10,6 30,3 27,7 21,5 18,5 10 6 28 15 WSW 1018,1 75 11 0,0
04.07.2020 13:00:00 25,1 12,1 32,4 27,2 21,0 18,5 8 4 19 10 WSW 1018,5 75 29 0,0
04.07.2020 12:00:00 24,4 10,3 30,9 25,8 20,6 18,5 7 4 20 11 W 1018,8 59 51 0,0
04.07.2020 11:00:00 21,9 10,9 25,7 23,3 20,4 18,5 8 4 18 10 SW 1019,3 75 46 0,0
04.07.2020 10:00:00 20,0 11,7 24,0 20,7 20,4 18,5 3 2 11 6 S 1020,0 62 54 0,0
04.07.2020 09:00:00 17,3 11,8 20,2 17,8 20,6 18,4 6 3 13 7 SSE 1020,4 63 60 0,0
04.07.2020 08:00:00 14,6 11,6 12,6 16,0 20,9 18,4 7 4 13 7 SE 1020,4 58 60 0,0
04.07.2020 07:00:00 11,2 10,3 9,8 15,9 21,2 18,4 0 0 3 2 N 1021,0 47 35 0,0
04.07.2020 06:00:00 10,0 9,2 8,5 16,2 21,6 18,4 0 0 4 2 N 1021,1 60 0 0,0
04.07.2020 05:00:00 10,4 9,4 8,2 16,7 22,0 18,4 3 1 5 3 NE 1020,7 49 0 0,0
04.07.2020 04:00:00 11,0 9,8 8,8 17,3 22,4 18,4 3 2 5 3 N 1020,6 56 0 0,0
04.07.2020 03:00:00 11,6 10,2 9,4 18,0 22,9 18,4 3 1 5 3 N 1020,6 69 0 0,0
04.07.2020 02:00:00 12,4 10,6 10,0 18,8 23,3 18,4 2 1 7 4 N 1020,7 70 0 0,0
04.07.2020 01:00:00 12,5 10,7 10,4 19,6 23,7 18,4 4 2 8 5 N 1020,3 60 0 0,0
04.07.2020 00:00:00 14,1 11,0 11,1 20,6 24,1 18,4 4 2 8 4 N 1020,2 67 0 0,0
03.07.2020 23:00:00 15,4 11,4 12,3 21,7 24,4 18,4 5 3 7 4 N 1019,6 70 0 0,0
03.07.2020 22:00:00 16,4 11,1 13,5 23,1 24,6 18,4 2 1 7 4 SW 1019,0 75 0 0,0
03.07.2020 21:00:00 19,1 10,1 15,9 24,6 24,7 18,4 3 2 16 8 WNW 1018,1 75 23 0,0
03.07.2020 20:00:00 21,5 10,1 18,6 26,3 24,6 18,4 5 3 18 10 NW 1017,3 75 50 0,0
03.07.2020 19:00:00 22,2 10,1 24,7 27,9 24,3 18,4 5 3 23 12 NW 1016,9 75 32 0,0
03.07.2020 18:00:00 25,0 10,6 29,2 29,1 23,9 18,4 8 4 19 10 NNW 1016,5 75 44 0,0
03.07.2020 17:00:00 25,2 10,3 29,0 29,6 23,5 18,4 9 5 23 13 NW 1016,6 75 45 0,0
03.07.2020 16:00:00 24,1 9,7 29,7 29,7 23,0 18,4 10 5 29 16 NW 1017,0 75 39 0,0
03.07.2020 15:00:00 23,4 11,8 29,6 28,8 22,5 18,4 7 4 25 13 NW 1017,1 75 27 0,0
03.07.2020 14:00:00 21,9 10,0 24,7 28,0 22,0 18,4 8 4 25 14 NNW 1017,6 75 25 0,0
03.07.2020 13:00:00 20,2 8,9 23,7 27,2 21,6 18,4 13 7 26 14 W 1017,9 75 40 0,1
03.07.2020 12:00:00 20,8 12,2 25,9 24,9 21,3 18,4 8 5 21 12 W 1018,0 72 27 0,0
03.07.2020 11:00:00 20,6 12,7 24,5 23,6 21,1 18,3 8 4 22 12 WNW 1017,8 70 34 0,1
03.07.2020 10:00:00 19,4 12,5 21,2 22,2 21,1 18,3 9 5 17 9 N 1017,9 75 42 0,1
03.07.2020 09:00:00 18,6 12,8 22,6 19,8 21,2 18,3 6 3 15 8 WNW 1017,8 70 45 0,0
03.07.2020 08:00:00 15,7 12,7 15,9 18,3 21,4 18,3 7 4 18 10 W 1017,7 62 2 0,0
03.07.2020 07:00:00 14,6 12,5 14,0 17,7 21,7 18,3 8 4 16 9 W 1017,6 75 3 0,0
03.07.2020 06:00:00 14,0 12,2 13,2 17,7 22,0 18,3 8 4 15 8 WSW 1016,9 59 0 0,0
03.07.2020 05:00:00 13,0 11,6 11,4 18,1 22,3 18,3 3 2 8 4 WSW 1016,6 69 0 0,0
03.07.2020 04:00:00 14,6 12,0 12,5 18,9 22,6 18,3 0 0 11 6 N 1015,7 68 0 0,0
03.07.2020 03:00:00 15,7 12,6 14,1 19,7 22,9 18,3 6 3 15 8 W 1015,4 74 0 0,0
03.07.2020 02:00:00 16,4 13,4 14,9 20,1 23,2 18,3 8 5 24 13 W 1015,0 75 0 0,0
03.07.2020 01:00:00 17,0 15,5 15,9 20,8 23,5 18,3 8 5 15 8 SW 1014,5 74 0 0,0
03.07.2020 00:00:00 17,6 15,9 16,7 21,5 23,7 18,3 8 4 20 11 SW 1013,8 75 0 0,0
02.07.2020 23:00:00 18,6 16,8 18,1 22,3 23,9 18,3 13 7 23 13 SW 1013,8 75 0 0,0
02.07.2020 22:00:00 19,4 17,0 18,8 23,1 24,1 18,3 6 3 14 8 SSW 1013,1 75 0 0,0
02.07.2020 21:00:00 20,0 16,5 19,3 24,0 24,2 18,3 3 2 10 5 WNW 1012,6 75 0 0,0
02.07.2020 20:00:00 20,9 18,0 20,3 24,8 24,3 18,3 5 3 10 5 SW 1011,8 38 0 0,0
02.07.2020 19:00:00 21,4 16,2 22,2 25,4 24,2 18,2 3 2 11 6 SW 1011,7 75 0 0,0
02.07.2020 18:00:00 21,2 16,9 21,6 26,3 24,1 18,2 5 3 16 9 WNW 1011,6 25 9 0,0
02.07.2020 17:00:00 22,6 17,5 25,3 26,9 24,0 18,2 4 2 12 7 W 1011,4 75 24 0,0
02.07.2020 16:00:00 21,8 16,9 24,7 26,7 23,8 18,2 5 3 13 7 ESE 1011,8 75 27 0,0
02.07.2020 15:00:00 20,2 16,2 21,7 26,1 23,7 18,2 4 2 10 5 S 1012,4 62 16 0,0
02.07.2020 14:00:00 18,0 15,8 18,7 25,7 23,3 18,2 5 3 29 16 SW 1013,1 75 0 2,7
02.07.2020 13:00:00 21,3 13,5 22,7 29,1 22,9 18,2 10 6 34 18 W 1012,5 69 32 0,0
02.07.2020 12:00:00 24,3 16,0 30,7 27,1 22,7 18,2 7 4 19 10 SSW 1011,4 69 40 0,1
02.07.2020 11:00:00 22,2 17,1 24,9 24,6 22,6 18,2 7 4 16 9 SSW 1011,8 65 2 0,0
02.07.2020 10:00:00 21,6 17,3 23,9 23,3 22,6 18,2 5 3 12 6 SSW 1011,7 75 20 0,0
02.07.2020 09:00:00 19,7 16,5 20,9 21,9 22,7 18,2 4 2 12 6 S 1012,1 66 1 0,0
02.07.2020 08:00:00 19,5 16,8 19,5 21,0 23,0 18,2 6 3 10 6 SW 1011,7 59 2 0,0
02.07.2020 07:00:00 18,2 16,0 17,5 20,6 23,2 18,2 2 1 8 4 SW 1011,5 75 21 0,0
02.07.2020 06:00:00 16,6 15,6 16,1 20,5 23,5 18,2 2 1 6 4 S 1011,9 53 0 0,0
02.07.2020 05:00:00 16,4 15,8 16,1 20,8 23,9 18,2 5 3 16 9 N 1011,7 54 0 0,0
02.07.2020 04:00:00 16,8 15,6 15,3 21,4 24,2 18,2 5 3 14 7 SW 1011,0 73 0 0,0
02.07.2020 03:00:00 17,6 16,3 16,6 22,3 24,5 18,2 5 3 16 8 SSW 1011,1 64 0 0,4
02.07.2020 02:00:00 19,2 15,7 17,6 22,9 24,8 18,2 5 3 12 7 SE 1011,5 23 0 0,1
02.07.2020 01:00:00 19,9 14,9 18,5 23,5 25,2 18,2 13 7 37 20 W 1011,7 60 0 0,0
02.07.2020 00:00:00 21,0 14,5 19,9 24,4 25,4 18,2 7 4 23 13 SSW 1009,9 75 0 0,0
01.07.2020 23:00:00 22,0 15,0 19,7 25,4 25,7 18,2 10 5 24 13 SSW 1009,0 71 0 0,0
01.07.2020 22:00:00 23,7 15,4 22,0 26,7 25,8 18,2 10 6 25 13 SSW 1008,1 75 0 0,0
01.07.2020 21:00:00 25,8 17,6 23,5 28,2 25,8 18,2 5 3 9 5 SW 1007,1 75 19 0,0
01.07.2020 20:00:00 25,9 16,8 24,4 29,3 25,6 18,2 4 2 18 10 SW 1007,3 75 0 0,0
01.07.2020 19:00:00 27,2 14,6 26,8 30,9 25,3 18,2 9 5 21 11 SW 1007,2 73 28 0,0
01.07.2020 18:00:00 31,5 15,4 36,3 32,3 24,7 18,2 11 6 22 12 W 1006,4 75 53 0,0
01.07.2020 17:00:00 31,6 15,4 37,7 33,1 24,0 18,2 9 5 24 13 W 1006,7 75 60 0,0
01.07.2020 16:00:00 30,8 14,4 37,6 33,1 23,3 18,2 10 6 28 15 SW 1007,2 74 60 0,0
01.07.2020 15:00:00 30,5 15,5 37,0 32,2 22,5 18,2 10 5 27 14 WSW 1007,7 75 59 0,0
01.07.2020 14:00:00 29,3 15,8 37,2 31,0 21,8 18,2 12 6 29 15 SW 1008,5 63 59 0,0
01.07.2020 13:00:00 27,9 16,5 33,6 28,9 21,1 18,2 9 5 22 12 SSW 1009,1 41 58 0,0
01.07.2020 12:00:00 25,5 14,5 31,7 26,5 20,7 18,2 8 5 21 11 SE 1010,1 75 60 0,0
01.07.2020 11:00:00 23,5 13,8 30,0 24,1 20,4 18,2 9 5 22 12 SSE 1010,9 66 60 0,0
01.07.2020 10:00:00 21,6 13,5 26,1 21,4 20,4 18,1 6 3 14 8 SSE 1011,7 60 60 0,0
01.07.2020 09:00:00 19,7 12,9 22,4 18,5 20,5 18,1 8 4 14 7 SSE 1012,1 52 60 0,0
01.07.2020 08:00:00 16,9 13,0 14,3 16,7 20,8 18,1 4 2 12 6 S 1012,7 53 60 0,0
01.07.2020 07:00:00 13,4 12,1 11,9 16,6 21,1 18,1 0 0 4 2 N 1013,1 50 36 0,0
01.07.2020 06:00:00 12,2 11,4 10,6 16,8 21,4 18,1 0 0 3 1 N 1013,1 43 0 0,0
01.07.2020 05:00:00 12,3 11,3 10,5 17,2 21,8 18,1 0 0 3 1 N 1013,1 60 0 0,0
01.07.2020 04:00:00 12,7 11,5 11,0 17,8 22,1 18,1 0 0 6 3 N 1013,1 58 0 0,0
01.07.2020 03:00:00 13,1 11,9 11,4 18,4 22,5 18,1 4 2 8 4 NNW 1013,0 63 0 0,0
01.07.2020 02:00:00 13,5 12,0 11,5 19,0 22,9 18,1 4 2 6 3 N 1013,1 62 0 0,0
01.07.2020 01:00:00 14,5 12,2 12,2 19,8 23,2 18,1 4 2 7 4 N 1013,0 75 0 0,0

tt = Température de l'air
td = dewpoint
tt 5cm = Température de l'air 5cm
tt -5cm = Température de l'air -5cm
tt -20cm = Température de l'air -20cm
tt -100cm = Température de l'air -100cm
ff = Vitesse du vent
fx = gusts
dd = Direction du vent
ppp = reduced air pressure
vv = visibility
sd = Ensoleillement
rr = Quantités de précipitations

stations d'obs. à proximité